Location: Staunton
(38.1490°N, 79.0720°W)
Time: 00:11:18
(UTC-04:00)

ISS - Pass Details

Date: 11 May 2021
Orbit: 417 x 422 km, 51.6° (Epoch: 18 May)

Event Time Altitude Azimuth Distance (km) Brightness Sun altitude
Rises 05:26:22 0° 316° (NW) 2,369 -0.1 -8.3°
Reaches altitude 10° 05:28:38 10° 328° (NNW) 1,503 -1.0 -7.9°
Maximum altitude 05:31:39 29° 31° (NNE) 792 -1.6 -7.4°
Drops below altitude 10° 05:34:40 10° 94° (E) 1,499 0.0 -6.9°
Sets 05:36:55 0° 106° (ESE) 2,361 0.8 -6.5°
